WJA558 CYYC-CYUL

Flight info

Callsign WJA558
Flight time N/A
Altitude 39000
Route LOMLO Q961 DAPOP DCT DURUR DCT GABOV DCT YXZ DCT YYB DCT BEMOG LFLER7
Aircraft B38M/M-SDE1FGHILORVWXY/HB1

Departure

Time N/A
Airport Calgary International Airport (CYYC)

Arrival

Time 2026-05-03 23:02
Airport Montreal / Pierre Elliott Trudeau International Airport (CYUL)
Time Latitude Longitude Altitude Speed Heading
2026-05-03 20:15 50.63222 -104.34171 38674 ft 500 kts 94°
2026-05-03 20:15 50.62499 -104.23285 38673 ft 500 kts 94°
2026-05-03 20:16 50.61764 -104.12391 38675 ft 500 kts 94°
2026-05-03 20:16 50.61018 -104.01472 38676 ft 502 kts 94°
2026-05-03 20:17 50.60261 -103.90541 38676 ft 503 kts 94°
2026-05-03 20:17 50.59497 -103.79668 38669 ft 503 kts 94°
2026-05-03 20:18 50.58718 -103.68731 38664 ft 503 kts 94°
2026-05-03 20:18 50.57930 -103.57812 38662 ft 503 kts 94°
2026-05-03 20:19 50.57131 -103.46883 38657 ft 503 kts 94°
2026-05-03 20:19 50.56321 -103.35946 38651 ft 503 kts 94°
2026-05-03 20:20 50.55501 -103.25035 38651 ft 502 kts 94°
2026-05-03 20:20 50.54673 -103.14141 38656 ft 502 kts 94°
2026-05-03 20:21 50.53835 -103.03244 38660 ft 502 kts 94°
2026-05-03 20:21 50.52985 -102.92349 38650 ft 503 kts 94°
2026-05-03 20:22 50.52131 -102.81517 38646 ft 503 kts 95°
2026-05-03 20:22 50.51259 -102.70601 38638 ft 503 kts 95°
2026-05-03 20:23 50.50378 -102.59695 38661 ft 503 kts 95°
2026-05-03 20:23 50.49487 -102.48802 38632 ft 502 kts 95°
2026-05-03 20:24 50.48585 -102.37899 38637 ft 503 kts 95°
2026-05-03 20:24 50.47679 -102.27086 38621 ft 503 kts 95°
2026-05-03 20:25 50.46757 -102.16197 38617 ft 503 kts 95°
2026-05-03 20:25 50.45826 -102.05323 38620 ft 502 kts 95°
2026-05-03 20:26 50.44888 -101.94485 38610 ft 501 kts 95°
2026-05-03 20:26 50.43938 -101.83646 38608 ft 502 kts 95°
2026-05-03 20:27 50.42978 -101.72801 38605 ft 502 kts 95°
2026-05-03 20:27 50.42008 -101.61966 38622 ft 502 kts 95°
2026-05-03 20:28 50.41030 -101.51154 38590 ft 500 kts 95°
2026-05-03 20:28 50.40044 -101.40362 38596 ft 500 kts 95°
2026-05-03 20:29 50.39047 -101.29574 38590 ft 500 kts 95°
2026-05-03 20:29 50.38040 -101.18783 38592 ft 500 kts 95°
2026-05-03 20:30 50.37023 -101.07999 38592 ft 500 kts 95°
2026-05-03 20:30 50.35999 -100.97260 38585 ft 499 kts 95°
2026-05-03 20:31 50.34966 -100.86521 38584 ft 499 kts 95°
2026-05-03 20:31 50.33922 -100.75784 38581 ft 499 kts 95°
2026-05-03 20:32 50.32868 -100.65045 38603 ft 499 kts 95°
2026-05-03 20:32 50.31811 -100.54386 38576 ft 499 kts 96°
2026-05-03 20:33 50.30738 -100.43664 38579 ft 499 kts 96°
2026-05-03 20:33 50.29655 -100.32943 38569 ft 499 kts 96°
2026-05-03 20:34 50.28560 -100.22210 38569 ft 499 kts 96°
2026-05-03 20:34 50.27455 -100.11480 38579 ft 499 kts 96°
2026-05-03 20:35 50.26342 -100.00776 38564 ft 499 kts 96°
2026-05-03 20:35 50.25219 -99.90075 38564 ft 499 kts 96°
2026-05-03 20:36 50.24093 -99.79443 38559 ft 499 kts 96°
2026-05-03 20:36 50.22951 -99.68753 38551 ft 499 kts 96°
2026-05-03 20:37 50.21799 -99.58068 38539 ft 498 kts 96°
2026-05-03 20:37 50.20640 -99.47417 38557 ft 498 kts 96°
2026-05-03 20:38 50.19469 -99.36746 38569 ft 498 kts 96°
2026-05-03 20:38 50.18289 -99.26097 38520 ft 498 kts 96°
2026-05-03 20:39 50.17302 -99.17248 38567 ft 499 kts 97°
2026-05-03 20:39 50.16107 -99.06633 38529 ft 494 kts 97°
2026-05-03 20:40 50.14909 -98.96070 38541 ft 495 kts 97°
2026-05-03 20:40 50.13699 -98.85497 38542 ft 495 kts 97°
2026-05-03 20:41 50.12482 -98.74952 38546 ft 495 kts 97°
2026-05-03 20:41 50.11253 -98.64390 38542 ft 495 kts 97°
2026-05-03 20:42 50.10016 -98.53847 38530 ft 495 kts 97°
2026-05-03 20:42 50.08769 -98.43309 38545 ft 494 kts 97°
2026-05-03 20:43 50.07523 -98.32862 38551 ft 494 kts 97°
2026-05-03 20:43 50.06259 -98.22344 38573 ft 494 kts 97°
2026-05-03 20:44 50.04988 -98.11856 38550 ft 493 kts 97°
2026-05-03 20:44 50.03708 -98.01380 38560 ft 493 kts 97°
2026-05-03 20:45 50.02417 -97.90899 38559 ft 493 kts 98°
2026-05-03 20:45 50.01118 -97.80426 38564 ft 493 kts 98°
2026-05-03 20:46 49.99815 -97.70009 38568 ft 493 kts 98°
2026-05-03 20:46 49.98498 -97.59558 38567 ft 493 kts 98°
2026-05-03 20:47 49.97170 -97.49097 38569 ft 493 kts 98°
2026-05-03 20:47 49.95834 -97.38656 38554 ft 494 kts 98°
2026-05-03 20:48 49.94488 -97.28218 38588 ft 492 kts 98°
2026-05-03 20:48 49.93132 -97.17782 38572 ft 492 kts 98°
2026-05-03 20:49 49.91768 -97.07360 38554 ft 492 kts 99°
2026-05-03 20:49 49.90404 -96.97010 38558 ft 492 kts 99°
2026-05-03 20:50 49.89024 -96.86619 38559 ft 492 kts 99°
2026-05-03 20:50 49.87632 -96.76208 38574 ft 493 kts 99°
2026-05-03 20:51 49.86229 -96.65798 38566 ft 494 kts 99°
2026-05-03 20:51 49.84814 -96.55371 38562 ft 494 kts 99°
2026-05-03 20:52 49.83389 -96.44954 38560 ft 494 kts 99°
2026-05-03 20:52 49.81956 -96.34544 38560 ft 494 kts 99°
2026-05-03 20:53 49.80513 -96.24132 38555 ft 494 kts 99°
2026-05-03 20:53 49.79061 -96.13739 38559 ft 494 kts 99°
2026-05-03 20:54 49.77604 -96.03372 38562 ft 493 kts 100°
2026-05-03 20:54 49.75397 -95.87815 38560 ft 493 kts 100°
2026-05-03 20:55 49.73915 -95.77451 38566 ft 493 kts 100°
2026-05-03 20:55 49.72435 -95.67181 38560 ft 493 kts 100°
2026-05-03 20:56 49.70937 -95.56846 38569 ft 493 kts 100°
2026-05-03 20:56 49.69427 -95.46505 38577 ft 493 kts 100°
2026-05-03 20:57 49.67909 -95.36179 38596 ft 493 kts 101°
2026-05-03 20:57 49.66381 -95.25848 38587 ft 493 kts 101°
2026-05-03 20:58 49.64847 -95.15548 38598 ft 493 kts 101°
2026-05-03 20:58 49.63302 -95.05231 38582 ft 493 kts 101°
2026-05-03 20:59 49.61762 -94.94998 38610 ft 492 kts 101°
2026-05-03 20:59 49.60203 -94.84705 38631 ft 493 kts 101°
2026-05-03 21:00 49.58900 -94.76154 38630 ft 493 kts 101°
2026-05-03 21:00 49.57056 -94.64121 38652 ft 493 kts 101°
2026-05-03 21:01 49.55467 -94.53824 38652 ft 493 kts 101°
2026-05-03 21:01 49.53884 -94.43620 38672 ft 493 kts 101°
2026-05-03 21:02 49.52279 -94.33344 38665 ft 494 kts 101°
2026-05-03 21:02 49.50663 -94.23055 38666 ft 494 kts 101°
2026-05-03 21:03 49.49039 -94.12779 38670 ft 494 kts 101°
2026-05-03 21:03 49.47529 -94.02484 38672 ft 492 kts 98°
2026-05-03 21:04 49.46281 -93.92194 38670 ft 493 kts 98°
2026-05-03 21:04 49.44999 -93.81772 38674 ft 493 kts 98°
2026-05-03 21:05 49.43716 -93.71431 38677 ft 493 kts 98°
2026-05-03 21:05 49.42432 -93.61159 38679 ft 493 kts 98°
2026-05-03 21:06 49.41121 -93.50758 38687 ft 492 kts 98°
2026-05-03 21:06 49.39825 -93.40545 38675 ft 490 kts 98°
2026-05-03 21:07 49.38510 -93.30265 38688 ft 491 kts 99°
2026-05-03 21:07 49.37183 -93.19966 38688 ft 491 kts 99°
2026-05-03 21:08 49.35850 -93.09696 38709 ft 491 kts 99°
2026-05-03 21:08 49.34509 -92.99437 38691 ft 490 kts 99°
2026-05-03 21:09 49.33161 -92.89200 38692 ft 490 kts 99°
2026-05-03 21:09 49.31803 -92.78965 38689 ft 490 kts 99°
2026-05-03 21:10 49.30445 -92.68806 38691 ft 490 kts 99°
2026-05-03 21:10 49.29070 -92.58584 38690 ft 489 kts 99°
2026-05-03 21:11 49.27688 -92.48386 38668 ft 490 kts 99°
2026-05-03 21:11 49.26294 -92.38173 38689 ft 490 kts 99°
2026-05-03 21:12 49.24892 -92.27975 38686 ft 490 kts 99°
2026-05-03 21:12 49.23479 -92.17762 38697 ft 490 kts 99°
2026-05-03 21:13 49.22056 -92.07553 38685 ft 490 kts 100°
2026-05-03 21:13 49.20624 -91.97348 38688 ft 490 kts 100°
2026-05-03 21:14 49.19195 -91.87232 38680 ft 490 kts 100°
2026-05-03 21:14 49.17746 -91.77047 38681 ft 490 kts 100°
2026-05-03 21:15 49.16286 -91.66854 38682 ft 491 kts 100°
2026-05-03 21:15 49.14818 -91.56673 38679 ft 491 kts 100°
2026-05-03 21:16 49.13342 -91.46503 38678 ft 491 kts 100°
2026-05-03 21:16 49.11856 -91.36331 38678 ft 491 kts 100°
2026-05-03 21:17 49.10613 -91.27876 38690 ft 491 kts 100°
2026-05-03 21:17 49.08854 -91.15982 38679 ft 492 kts 101°
2026-05-03 21:18 49.07338 -91.05812 38666 ft 492 kts 101°
2026-05-03 21:18 49.05814 -90.95647 38668 ft 492 kts 101°
2026-05-03 21:19 49.04279 -90.85482 38678 ft 492 kts 101°
2026-05-03 21:19 49.02736 -90.75322 38668 ft 492 kts 101°
2026-05-03 21:20 49.01191 -90.65215 38656 ft 493 kts 101°
2026-05-03 21:20 48.99628 -90.55055 38664 ft 493 kts 101°
2026-05-03 21:21 48.98055 -90.44900 38657 ft 493 kts 101°
2026-05-03 21:21 48.96473 -90.34746 38651 ft 492 kts 101°
2026-05-03 21:22 48.94884 -90.24612 38654 ft 492 kts 101°
2026-05-03 21:22 48.93283 -90.14461 38651 ft 492 kts 101°
2026-05-03 21:23 48.91686 -90.04402 38652 ft 492 kts 102°
2026-05-03 21:23 48.90070 -89.94285 38656 ft 493 kts 102°
2026-05-03 21:24 48.88445 -89.84168 38648 ft 493 kts 102°
2026-05-03 21:24 48.86809 -89.74053 38647 ft 493 kts 102°
2026-05-03 21:25 48.85164 -89.63940 38644 ft 493 kts 102°
2026-05-03 21:25 48.83512 -89.53841 38643 ft 493 kts 102°
2026-05-03 21:26 48.81851 -89.43750 38641 ft 493 kts 102°
2026-05-03 21:26 48.80462 -89.35364 38639 ft 493 kts 102°
2026-05-03 21:27 48.78785 -89.25286 38638 ft 493 kts 102°
2026-05-03 21:27 48.77096 -89.15195 38633 ft 493 kts 102°
2026-05-03 21:28 48.75400 -89.05120 38634 ft 493 kts 102°
2026-05-03 21:28 48.73697 -88.95065 38624 ft 493 kts 102°
2026-05-03 21:29 48.71981 -88.84995 38618 ft 493 kts 103°
2026-05-03 21:29 48.70271 -88.75011 38613 ft 493 kts 103°
2026-05-03 21:30 48.68539 -88.64967 38618 ft 493 kts 103°
2026-05-03 21:30 48.66804 -88.54953 38612 ft 492 kts 103°
2026-05-03 21:31 48.65057 -88.44932 38611 ft 492 kts 103°
2026-05-03 21:31 48.63304 -88.34926 38604 ft 492 kts 103°
2026-05-03 21:32 48.61541 -88.24926 38627 ft 492 kts 103°
2026-05-03 21:32 48.59768 -88.14924 38610 ft 492 kts 103°
2026-05-03 21:33 48.57990 -88.04950 38627 ft 492 kts 103°
2026-05-03 21:33 48.56204 -87.94989 38624 ft 492 kts 103°
2026-05-03 21:34 48.54420 -87.85090 38631 ft 492 kts 103°
2026-05-03 21:34 48.52615 -87.75127 38643 ft 492 kts 104°
2026-05-03 21:35 48.50800 -87.65169 38638 ft 493 kts 104°
2026-05-03 21:35 48.48974 -87.55197 38644 ft 493 kts 104°
2026-05-03 21:36 48.47137 -87.45227 38649 ft 493 kts 104°
2026-05-03 21:36 48.45296 -87.35284 38657 ft 492 kts 104°
2026-05-03 21:37 48.43460 -87.25426 38649 ft 491 kts 104°
2026-05-03 21:37 48.41608 -87.15528 38653 ft 492 kts 104°
2026-05-03 21:38 48.39743 -87.05621 38651 ft 492 kts 104°
2026-05-03 21:38 48.37871 -86.95729 38669 ft 492 kts 105°
2026-05-03 21:39 48.35995 -86.85856 38668 ft 490 kts 105°
2026-05-03 21:39 48.34108 -86.75985 38668 ft 490 kts 105°
2026-05-03 21:40 48.32215 -86.66136 38676 ft 491 kts 105°
2026-05-03 21:40 48.30313 -86.56292 38684 ft 491 kts 105°
2026-05-03 21:41 48.28404 -86.46458 38672 ft 490 kts 106°
2026-05-03 21:41 48.26499 -86.36696 38674 ft 490 kts 106°
2026-05-03 21:42 48.24574 -86.26881 38672 ft 490 kts 106°
2026-05-03 21:42 48.22637 -86.17059 38667 ft 490 kts 106°
2026-05-03 21:43 48.20695 -86.07256 38673 ft 492 kts 106°
2026-05-03 21:43 48.18735 -85.97413 38674 ft 492 kts 106°
2026-05-03 21:44 48.16768 -85.87585 38676 ft 492 kts 106°
2026-05-03 21:44 48.14792 -85.77763 38680 ft 492 kts 107°
2026-05-03 21:45 48.12806 -85.67934 38684 ft 494 kts 107°
2026-05-03 21:45 48.10809 -85.58087 38683 ft 494 kts 107°
2026-05-03 21:46 48.08803 -85.48245 38677 ft 495 kts 107°
2026-05-03 21:46 48.06802 -85.38473 38686 ft 495 kts 107°
2026-05-03 21:47 48.04778 -85.28635 38685 ft 495 kts 107°
2026-05-03 21:47 48.02748 -85.18815 38674 ft 495 kts 107°
2026-05-03 21:48 48.00709 -85.08994 38669 ft 495 kts 107°
2026-05-03 21:48 47.98663 -84.99188 38664 ft 495 kts 107°
2026-05-03 21:49 47.96619 -84.89438 38662 ft 495 kts 107°
2026-05-03 21:49 47.94355 -84.79797 38650 ft 492 kts 113°
2026-05-03 21:50 47.91767 -84.70337 38660 ft 493 kts 112°
2026-05-03 21:50 47.89238 -84.60843 38668 ft 493 kts 111°
2026-05-03 21:51 47.86709 -84.51356 38679 ft 494 kts 111°
2026-05-03 21:51 47.84168 -84.41861 38690 ft 492 kts 112°
2026-05-03 21:52 47.81629 -84.32412 38709 ft 491 kts 112°
2026-05-03 21:52 47.79082 -84.22974 38700 ft 491 kts 112°
2026-05-03 21:53 47.76530 -84.13550 38699 ft 491 kts 112°
2026-05-03 21:53 47.73986 -84.04196 38706 ft 491 kts 112°
2026-05-03 21:54 47.71416 -83.94785 38688 ft 491 kts 112°
2026-05-03 21:54 47.68844 -83.85402 38704 ft 491 kts 112°
2026-05-03 21:55 47.66259 -83.76010 38703 ft 491 kts 112°
2026-05-03 21:55 47.63669 -83.66636 38703 ft 492 kts 113°
2026-05-03 21:56 47.61061 -83.57233 38709 ft 495 kts 113°
2026-05-03 21:56 47.58434 -83.47799 38709 ft 495 kts 113°
2026-05-03 21:57 47.55806 -83.38401 38706 ft 494 kts 113°
2026-05-03 21:57 47.53168 -83.29000 38714 ft 495 kts 113°
2026-05-03 21:58 47.50514 -83.19583 38721 ft 496 kts 113°
2026-05-03 21:58 47.47867 -83.10226 38724 ft 496 kts 113°
2026-05-03 21:59 47.45196 -83.00820 38720 ft 496 kts 113°
2026-05-03 21:59 47.42516 -82.91420 38717 ft 496 kts 113°
2026-05-03 22:00 47.39831 -82.82038 38736 ft 495 kts 113°
2026-05-03 22:00 47.37148 -82.72702 38730 ft 494 kts 113°
2026-05-03 22:01 47.34452 -82.63356 38725 ft 495 kts 113°
2026-05-03 22:01 47.31753 -82.54031 38727 ft 495 kts 114°
2026-05-03 22:02 47.29062 -82.44771 38728 ft 493 kts 114°
2026-05-03 22:02 47.26358 -82.35502 38741 ft 492 kts 114°
2026-05-03 22:03 47.23645 -82.26241 38738 ft 492 kts 114°
2026-05-03 22:03 47.20926 -82.16990 38742 ft 492 kts 114°
2026-05-03 22:04 47.18219 -82.07813 38745 ft 492 kts 114°
2026-05-03 22:04 47.15493 -81.98609 38745 ft 491 kts 114°
2026-05-03 22:05 47.12760 -81.89416 38754 ft 491 kts 114°
2026-05-03 22:05 47.10018 -81.80224 38750 ft 491 kts 114°
2026-05-03 22:06 47.07270 -81.71049 38754 ft 491 kts 114°
2026-05-03 22:06 47.04518 -81.61892 38755 ft 490 kts 115°
2026-05-03 22:07 47.01758 -81.52745 38761 ft 490 kts 115°
2026-05-03 22:07 46.98992 -81.43610 38761 ft 490 kts 115°
2026-05-03 22:08 46.96235 -81.34537 38769 ft 490 kts 115°
2026-05-03 22:08 46.93455 -81.25422 38773 ft 490 kts 115°
2026-05-03 22:09 46.90665 -81.16310 38775 ft 490 kts 115°
2026-05-03 22:10 46.86471 -81.02669 38781 ft 490 kts 115°
2026-05-03 22:10 46.83666 -80.93588 38781 ft 490 kts 115°
2026-05-03 22:11 46.80854 -80.84517 38764 ft 490 kts 115°
2026-05-03 22:11 46.78031 -80.75445 38774 ft 491 kts 115°
2026-05-03 22:12 46.75205 -80.66395 38776 ft 491 kts 115°
2026-05-03 22:12 46.72368 -80.57340 38800 ft 490 kts 115°
2026-05-03 22:13 46.69547 -80.48370 38801 ft 490 kts 115°
2026-05-03 22:13 46.66701 -80.39351 38802 ft 490 kts 116°
2026-05-03 22:14 46.63845 -80.30335 38803 ft 490 kts 116°
2026-05-03 22:14 46.60988 -80.21345 38799 ft 490 kts 116°
2026-05-03 22:15 46.58606 -80.13874 38802 ft 490 kts 116°
2026-05-03 22:15 46.55738 -80.04907 38800 ft 490 kts 116°
2026-05-03 22:16 46.52859 -79.95939 38801 ft 490 kts 116°
2026-05-03 22:16 46.49978 -79.86984 38801 ft 490 kts 116°
2026-05-03 22:17 46.47083 -79.78017 38798 ft 490 kts 116°
2026-05-03 22:17 46.44186 -79.69074 38802 ft 490 kts 116°
2026-05-03 22:18 46.41279 -79.60130 38797 ft 490 kts 116°
2026-05-03 22:18 46.38390 -79.51271 38776 ft 490 kts 116°
2026-05-03 22:19 46.36057 -79.42060 38765 ft 488 kts 97°
2026-05-03 22:19 46.35618 -79.32241 38764 ft 490 kts 93°
2026-05-03 22:20 46.35223 -79.22380 38778 ft 491 kts 93°
2026-05-03 22:20 46.34833 -79.12526 38787 ft 491 kts 93°
2026-05-03 22:21 46.34435 -79.02667 38792 ft 490 kts 93°
2026-05-03 22:21 46.34029 -78.92825 38797 ft 490 kts 93°
2026-05-03 22:22 46.33614 -78.82979 38799 ft 490 kts 93°
2026-05-03 22:22 46.33190 -78.73136 38799 ft 490 kts 94°
2026-05-03 22:23 46.32759 -78.63303 38797 ft 489 kts 94°
2026-05-03 22:23 46.32321 -78.53501 38799 ft 489 kts 94°
2026-05-03 22:24 46.31876 -78.43746 38796 ft 489 kts 94°
2026-05-03 22:24 46.31420 -78.33930 38793 ft 489 kts 94°
2026-05-03 22:25 46.30957 -78.24144 38791 ft 487 kts 94°
2026-05-03 22:25 46.30486 -78.14355 38791 ft 487 kts 94°
2026-05-03 22:26 46.30007 -78.04584 38785 ft 487 kts 94°
2026-05-03 22:26 46.29520 -77.94821 38789 ft 487 kts 94°
2026-05-03 22:27 46.29024 -77.85053 38783 ft 486 kts 95°
2026-05-03 22:27 46.28521 -77.75304 38778 ft 486 kts 95°
2026-05-03 22:28 46.28009 -77.65554 38786 ft 486 kts 95°
2026-05-03 22:28 46.27494 -77.55891 38780 ft 486 kts 95°
2026-05-03 22:29 46.26966 -77.46156 38778 ft 486 kts 95°
2026-05-03 22:29 46.26430 -77.36417 38782 ft 486 kts 95°
2026-05-03 22:30 46.25887 -77.26691 38783 ft 486 kts 95°
2026-05-03 22:30 46.25334 -77.16957 38778 ft 485 kts 95°
2026-05-03 22:31 46.24774 -77.07244 38773 ft 484 kts 95°
2026-05-03 22:31 46.24209 -76.97574 38775 ft 484 kts 95°
2026-05-03 22:32 46.23635 -76.87896 38776 ft 484 kts 95°
2026-05-03 22:32 46.23056 -76.78275 38781 ft 484 kts 95°
2026-05-03 22:33 46.22465 -76.68596 38772 ft 484 kts 95°
2026-05-03 22:33 46.21866 -76.58926 38778 ft 483 kts 96°
2026-05-03 22:34 46.21260 -76.49265 38784 ft 483 kts 96°
2026-05-03 22:34 46.20646 -76.39606 38777 ft 483 kts 96°
2026-05-03 22:35 46.20022 -76.29944 38773 ft 483 kts 96°
2026-05-03 22:35 46.19393 -76.20301 38782 ft 483 kts 96°
2026-05-03 22:36 46.18754 -76.10651 38730 ft 481 kts 96°
2026-05-03 22:36 46.18434 -76.05861 38118 ft 479 kts 96°
2026-05-03 22:36 46.18112 -76.01061 37117 ft 485 kts 96°
2026-05-03 22:36 46.17781 -75.96179 36243 ft 489 kts 96°
2026-05-03 22:37 46.17450 -75.91309 35556 ft 488 kts 96°
2026-05-03 22:37 46.17118 -75.86441 34928 ft 487 kts 96°
2026-05-03 22:37 46.16784 -75.81578 34211 ft 488 kts 96°
2026-05-03 22:37 46.16447 -75.76692 33309 ft 491 kts 95°
2026-05-03 22:38 46.16106 -75.71770 32353 ft 494 kts 95°
2026-05-03 22:38 46.15762 -75.66854 31697 ft 490 kts 95°
2026-05-03 22:38 46.15425 -75.62064 31239 ft 483 kts 95°
2026-05-03 22:38 46.15060 -75.57290 30703 ft 477 kts 97°
2026-05-03 22:39 46.14605 -75.52553 30021 ft 476 kts 96°
2026-05-03 22:39 46.14163 -75.47844 29399 ft 472 kts 96°
2026-05-03 22:39 46.13731 -75.43179 28799 ft 467 kts 96°
2026-05-03 22:39 46.13303 -75.38568 28253 ft 461 kts 96°
2026-05-03 22:40 46.12880 -75.34008 27699 ft 457 kts 96°
2026-05-03 22:40 46.12458 -75.29489 27149 ft 452 kts 96°
2026-05-03 22:40 46.12038 -75.25019 26613 ft 448 kts 96°
2026-05-03 22:40 46.11620 -75.20583 26088 ft 444 kts 96°
2026-05-03 22:41 46.11205 -75.16185 25544 ft 441 kts 96°
2026-05-03 22:41 46.10790 -75.11816 25035 ft 439 kts 96°
2026-05-03 22:41 46.10370 -75.07465 24404 ft 439 kts 96°
2026-05-03 22:41 46.09946 -75.03112 23846 ft 438 kts 96°
2026-05-03 22:42 46.09522 -74.98780 23294 ft 436 kts 96°
2026-05-03 22:42 46.09098 -74.94455 22567 ft 434 kts 96°
2026-05-03 22:42 46.08683 -74.90245 21965 ft 426 kts 96°
2026-05-03 22:42 46.08263 -74.86004 21389 ft 418 kts 96°
2026-05-03 22:43 46.07857 -74.81904 20810 ft 411 kts 96°
2026-05-03 22:43 46.07453 -74.77857 20241 ft 405 kts 96°
2026-05-03 22:43 46.07059 -74.73912 19684 ft 403 kts 96°
2026-05-03 22:43 46.06658 -74.69920 19116 ft 400 kts 96°
2026-05-03 22:44 46.06261 -74.65972 18554 ft 398 kts 96°
2026-05-03 22:44 46.05864 -74.62046 17993 ft 395 kts 96°
2026-05-03 22:44 46.05468 -74.58146 17380 ft 392 kts 96°
2026-05-03 22:44 46.05067 -74.54287 16901 ft 386 kts 98°
2026-05-03 22:45 46.04197 -74.50652 16315 ft 385 kts 119°
2026-05-03 22:45 46.02574 -74.47638 15845 ft 381 kts 137°
2026-05-03 22:45 46.00588 -74.45122 15321 ft 379 kts 141°
2026-05-03 22:45 45.98581 -74.42677 14798 ft 376 kts 141°
2026-05-03 22:46 45.96579 -74.40283 14278 ft 373 kts 142°
2026-05-03 22:46 45.94586 -74.37929 13764 ft 369 kts 142°
2026-05-03 22:46 45.92604 -74.35606 13203 ft 366 kts 142°
2026-05-03 22:46 45.90634 -74.33305 12603 ft 364 kts 142°
2026-05-03 22:47 45.88678 -74.31025 12076 ft 360 kts 142°
2026-05-03 22:47 45.86775 -74.28809 11973 ft 343 kts 143°
2026-05-03 22:47 45.84994 -74.26737 12012 ft 329 kts 143°
2026-05-03 22:47 45.83225 -74.24681 12006 ft 326 kts 143°
2026-05-03 22:48 45.81457 -74.22629 11715 ft 325 kts 143°
2026-05-03 22:48 45.79706 -74.20598 11239 ft 324 kts 143°
2026-05-03 22:48 45.77958 -74.18572 10735 ft 321 kts 143°
2026-05-03 22:48 45.76252 -74.16595 10390 ft 309 kts 143°
2026-05-03 22:49 45.74849 -74.14339 10048 ft 301 kts 121°
2026-05-03 22:49 45.73875 -74.11741 9748 ft 291 kts 120°
2026-05-03 22:49 45.72915 -74.09238 9396 ft 284 kts 120°
2026-05-03 22:49 45.71970 -74.06777 9041 ft 280 kts 120°
2026-05-03 22:50 45.71035 -74.04342 8629 ft 278 kts 120°
2026-05-03 22:50 45.70107 -74.01925 8226 ft 276 kts 120°
2026-05-03 22:50 45.69186 -73.99527 7828 ft 273 kts 120°
2026-05-03 22:50 45.68278 -73.97164 7433 ft 269 kts 120°
2026-05-03 22:51 45.67386 -73.94846 7159 ft 265 kts 120°
2026-05-03 22:51 45.66503 -73.92552 6926 ft 262 kts 120°
2026-05-03 22:51 45.65624 -73.90272 6688 ft 260 kts 120°
2026-05-03 22:51 45.64757 -73.88023 6454 ft 257 kts 120°
2026-05-03 22:52 45.63906 -73.85819 6218 ft 255 kts 120°
2026-05-03 22:52 45.63050 -73.83602 5948 ft 254 kts 120°
2026-05-03 22:52 45.62195 -73.81392 5687 ft 254 kts 120°
2026-05-03 22:52 45.61343 -73.79190 5419 ft 253 kts 120°
2026-05-03 22:53 45.60674 -73.76886 5130 ft 253 kts 98°
2026-05-03 22:53 45.60825 -73.74422 4852 ft 249 kts 67°
2026-05-03 22:53 45.61738 -73.72389 4596 ft 242 kts 43°
2026-05-03 22:53 45.62931 -73.70716 4359 ft 239 kts 40°
2026-05-03 22:54 45.64119 -73.69092 4123 ft 234 kts 40°
2026-05-03 22:54 45.65291 -73.67511 3983 ft 229 kts 39°
2026-05-03 22:54 45.66453 -73.65958 3961 ft 229 kts 39°
2026-05-03 22:54 45.67611 -73.64418 3985 ft 225 kts 39°
2026-05-03 22:55 45.68745 -73.62913 3986 ft 221 kts 39°
2026-05-03 22:55 45.69660 -73.61145 3901 ft 225 kts 68°
2026-05-03 22:55 45.69803 -73.58964 3731 ft 226 kts 102°
2026-05-03 22:55 45.69146 -73.56951 3546 ft 225 kts 128°
2026-05-03 22:56 45.68187 -73.55181 3355 ft 225 kts 131°
2026-05-03 22:56 45.67100 -73.53605 3134 ft 220 kts 152°
2026-05-03 22:56 45.65702 -73.52983 2968 ft 206 kts 185°
2026-05-03 22:56 45.64378 -73.53405 3004 ft 190 kts 207°
2026-05-03 22:57 45.63216 -73.54277 3057 ft 188 kts 218°
2026-05-03 22:57 45.62187 -73.55412 3018 ft 186 kts 225°
2026-05-03 22:57 45.61225 -73.56636 3006 ft 186 kts 226°
2026-05-03 22:57 45.60283 -73.57874 2986 ft 181 kts 226°
2026-05-03 22:58 45.59369 -73.59076 2964 ft 177 kts 227°
2026-05-03 22:58 45.58465 -73.60269 2805 ft 175 kts 227°
2026-05-03 22:58 45.57592 -73.61418 2607 ft 167 kts 227°
2026-05-03 22:58 45.56757 -73.62518 2420 ft 166 kts 227°
2026-05-03 22:59 45.55914 -73.63626 2197 ft 161 kts 227°
2026-05-03 22:59 45.55132 -73.64654 2012 ft 146 kts 227°
2026-05-03 22:59 45.54399 -73.65618 1810 ft 141 kts 227°
2026-05-03 22:59 45.53683 -73.66561 1615 ft 140 kts 227°
2026-05-03 23:00 45.52964 -73.67507 1417 ft 141 kts 227°
2026-05-03 23:00 45.52243 -73.68452 1233 ft 140 kts 226°
2026-05-03 23:00 45.51534 -73.69386 1028 ft 138 kts 226°
2026-05-03 23:00 45.50822 -73.70313 836 ft 138 kts 226°
2026-05-03 23:01 45.50113 -73.71239 639 ft 138 kts 227°
2026-05-03 23:01 45.49417 -73.72155 418 ft 134 kts 226°
2026-05-03 23:01 45.48737 -73.73056 225 ft 133 kts 227°
2026-05-03 23:01 45.48072 -73.73910 120 ft 124 kts 227°
2026-05-03 23:02 45.47539 -73.74628 114 ft 74 kts 223°
2026-05-03 23:02 45.47222 -73.75044 116 ft 61 kts 223°
2026-05-03 23:02 45.46928 -73.75426 109 ft 42 kts 221°
2026-05-03 23:02 45.46741 -73.75583 111 ft 23 kts 198°
2026-05-03 23:03 45.46577 -73.75639 108 ft 22 kts 193°
2026-05-03 23:03 45.46445 -73.75681 107 ft 21 kts 191°
2026-05-03 23:03 45.46327 -73.75720 106 ft 15 kts 191°
2026-05-03 23:03 45.46219 -73.75727 105 ft 14 kts 178°
2026-05-03 23:04 45.46143 -73.75701 104 ft 11 kts 131°
2026-05-03 23:04 45.46134 -73.75590 104 ft 13 kts 85°
2026-05-03 23:04 45.46137 -73.75500 104 ft 15 kts 88°
2026-05-03 23:04 45.46141 -73.75341 103 ft 17 kts 87°
2026-05-03 23:05 45.46147 -73.75158 104 ft 19 kts 87°
2026-05-03 23:05 45.46153 -73.74962 107 ft 20 kts 88°
2026-05-03 23:05 45.46159 -73.74777 106 ft 17 kts 87°
2026-05-03 23:05 45.46161 -73.74621 106 ft 14 kts 99°
2026-05-03 23:06 45.46107 -73.74528 106 ft 10 kts 156°
2026-05-03 23:06 45.46032 -73.74512 106 ft 10 kts 178°
2026-05-03 23:06 45.45993 -73.74516 106 ft 1 kts 198°
2026-05-03 23:06 45.45989 -73.74519 106 ft 2 kts 202°
2026-05-03 23:07 45.45963 -73.74542 107 ft 5 kts 205°
2026-05-03 23:07 45.45924 -73.74546 107 ft 5 kts 177°
2026-05-03 23:07 45.45904 -73.74545 107 ft 2 kts 178°
2026-05-03 23:07 45.45895 -73.74545 107 ft 1 kts 178°
2026-05-03 23:08 45.45889 -73.74544 107 ft 1 kts 178°
2026-05-03 23:08 45.45888 -73.74544 107 ft 0 kts 178°
2026-05-03 23:08 45.45886 -73.74544 107 ft 0 kts 178°
2026-05-03 23:08 45.45885 -73.74544 107 ft 0 kts 178°
2026-05-03 23:25 45.45886 -73.74544 107 ft 0 kts 178°